VPCOH UTAA-UAIT

Flight info

Callsign VPCOH
Flight time 1h 34m
Altitude 39000
Route BUR29D BUROT B114 ABDAN R433 AGNAN/K0833F390 Z621 GENDI
Aircraft B738/M-SDE2E3FGHIRWXY/LB1

Departure

Time 2026-05-05 19:55
Airport Ashgabat International Airport (UTAA)

Arrival

Time 2026-05-05 21:29
Airport Hazrat Sultan International Airport (UAIT)
Time Latitude Longitude Altitude Speed Heading
2026-05-05 19:22 37.98081 58.36757 649 ft 0 kts 211°
2026-05-05 19:38 37.98084 58.36759 677 ft 1 kts 210°
2026-05-05 19:38 37.98092 58.36764 673 ft 1 kts 210°
2026-05-05 19:39 37.98099 58.36770 673 ft 1 kts 210°
2026-05-05 19:39 37.98109 58.36777 676 ft 2 kts 210°
2026-05-05 19:39 37.98118 58.36784 674 ft 2 kts 212°
2026-05-05 19:39 37.98126 58.36792 675 ft 1 kts 236°
2026-05-05 19:40 37.98131 58.36803 674 ft 2 kts 255°
2026-05-05 19:40 37.98133 58.36817 673 ft 2 kts 265°
2026-05-05 19:40 37.98134 58.36830 674 ft 2 kts 270°
2026-05-05 19:40 37.98134 58.36843 674 ft 2 kts 289°
2026-05-05 19:41 37.98131 58.36850 675 ft 0 kts 300°
2026-05-05 19:44 37.98132 58.36848 675 ft 2 kts 300°
2026-05-05 19:44 37.98149 58.36813 676 ft 6 kts 300°
2026-05-05 19:44 37.98170 58.36764 676 ft 6 kts 300°
2026-05-05 19:45 37.98192 58.36717 674 ft 6 kts 300°
2026-05-05 19:45 37.98213 58.36669 676 ft 7 kts 298°
2026-05-05 19:45 37.98236 58.36616 677 ft 7 kts 300°
2026-05-05 19:45 37.98261 58.36561 677 ft 7 kts 300°
2026-05-05 19:46 37.98277 58.36525 677 ft 7 kts 300°
2026-05-05 19:46 37.98300 58.36473 675 ft 7 kts 300°
2026-05-05 19:46 37.98340 58.36431 677 ft 10 kts 345°
2026-05-05 19:46 37.98437 58.36467 677 ft 18 kts 29°
2026-05-05 19:47 37.98548 58.36547 677 ft 18 kts 29°
2026-05-05 19:47 37.98657 58.36622 677 ft 18 kts 30°
2026-05-05 19:47 37.98719 58.36704 677 ft 12 kts 91°
2026-05-05 19:47 37.98681 58.36829 675 ft 11 kts 113°
2026-05-05 19:48 37.98662 58.36891 676 ft 11 kts 112°
2026-05-05 19:48 37.98633 58.36979 676 ft 11 kts 112°
2026-05-05 19:48 37.98600 58.37062 676 ft 10 kts 120°
2026-05-05 19:48 37.98566 58.37141 677 ft 10 kts 119°
2026-05-05 19:49 37.98532 58.37219 675 ft 10 kts 119°
2026-05-05 19:49 37.98499 58.37293 676 ft 10 kts 120°
2026-05-05 19:49 37.98466 58.37365 674 ft 9 kts 120°
2026-05-05 19:49 37.98434 58.37436 675 ft 9 kts 118°
2026-05-05 19:50 37.98404 58.37505 677 ft 9 kts 119°
2026-05-05 19:50 37.98375 58.37571 677 ft 9 kts 120°
2026-05-05 19:50 37.98345 58.37636 675 ft 8 kts 120°
2026-05-05 19:50 37.98317 58.37700 674 ft 8 kts 120°
2026-05-05 19:51 37.98290 58.37761 675 ft 8 kts 120°
2026-05-05 19:51 37.98263 58.37820 674 ft 8 kts 120°
2026-05-05 19:51 37.98239 58.37879 677 ft 7 kts 112°
2026-05-05 19:51 37.98233 58.37941 677 ft 7 kts 78°
2026-05-05 19:52 37.98241 58.37965 674 ft 0 kts 62°
2026-05-05 19:53 37.98242 58.37968 677 ft 1 kts 62°
2026-05-05 19:53 37.98264 58.38001 675 ft 10 kts 42°
2026-05-05 19:54 37.98332 58.38056 676 ft 12 kts 29°
2026-05-05 19:54 37.98360 58.38055 676 ft 3 kts 304°
2026-05-05 19:54 37.98363 58.38047 676 ft 1 kts 301°
2026-05-05 19:54 37.98375 58.38021 675 ft 19 kts 300°
2026-05-05 19:55 37.98579 58.37562 675 ft 100 kts 300°
2026-05-05 19:55 37.99035 58.36541 716 ft 160 kts 300°
2026-05-05 19:55 37.99591 58.35268 1529 ft 162 kts 297°
2026-05-05 19:55 38.00150 58.33992 2304 ft 171 kts 297°
2026-05-05 19:56 38.00772 58.32556 2670 ft 208 kts 298°
2026-05-05 19:56 38.01531 58.30833 2954 ft 238 kts 298°
2026-05-05 19:56 38.02379 58.28909 3272 ft 257 kts 298°
2026-05-05 19:56 38.03356 58.26942 3688 ft 275 kts 311°
2026-05-05 19:57 38.04898 58.25417 4272 ft 288 kts 335°
2026-05-05 19:57 38.06829 58.24759 5167 ft 288 kts 359°
2026-05-05 19:57 38.08770 58.25123 6110 ft 286 kts 22°
2026-05-05 19:57 38.10438 58.26469 6940 ft 287 kts 47°
2026-05-05 19:58 38.11578 58.28543 7749 ft 289 kts 63°
2026-05-05 19:58 38.12544 58.30835 8559 ft 296 kts 64°
2026-05-05 19:58 38.13506 58.33181 9375 ft 302 kts 64°
2026-05-05 19:58 38.14472 58.35539 10154 ft 308 kts 64°
2026-05-05 19:59 38.15501 58.38041 10518 ft 332 kts 63°
2026-05-05 19:59 38.16617 58.40736 10711 ft 357 kts 63°
2026-05-05 19:59 38.17804 58.43588 11195 ft 370 kts 63°
2026-05-05 19:59 38.19029 58.46516 11879 ft 377 kts 63°
2026-05-05 20:00 38.20273 58.49484 12621 ft 382 kts 63°
2026-05-05 20:00 38.21537 58.52499 13338 ft 389 kts 63°
2026-05-05 20:00 38.22805 58.55522 14017 ft 396 kts 63°
2026-05-05 20:00 38.24108 58.58631 14806 ft 399 kts 63°
2026-05-05 20:01 38.25421 58.61768 15628 ft 401 kts 63°
2026-05-05 20:01 38.26742 58.64925 16423 ft 406 kts 62°
2026-05-05 20:01 38.28077 58.68121 17178 ft 411 kts 62°
2026-05-05 20:01 38.29425 58.71349 17931 ft 416 kts 62°
2026-05-05 20:02 38.30772 58.74581 18595 ft 420 kts 62°
2026-05-05 20:02 38.32148 58.77886 19288 ft 423 kts 62°
2026-05-05 20:02 38.33538 58.81227 19980 ft 427 kts 62°
2026-05-05 20:02 38.34935 58.84588 20669 ft 430 kts 62°
2026-05-05 20:03 38.36321 58.87929 21297 ft 434 kts 62°
2026-05-05 20:03 38.37739 58.91350 21916 ft 438 kts 62°
2026-05-05 20:03 38.39169 58.94803 22539 ft 442 kts 62°
2026-05-05 20:03 38.40612 58.98291 23157 ft 446 kts 62°
2026-05-05 20:04 38.42064 59.01804 23697 ft 449 kts 62°
2026-05-05 20:04 38.43529 59.05356 24176 ft 453 kts 62°
2026-05-05 20:04 38.45005 59.08934 24668 ft 457 kts 62°
2026-05-05 20:04 38.46470 59.12491 25145 ft 460 kts 62°
2026-05-05 20:05 38.47966 59.16118 25624 ft 463 kts 61°
2026-05-05 20:05 38.49661 59.19631 26072 ft 467 kts 54°
2026-05-05 20:05 38.51587 59.22990 26518 ft 470 kts 51°
2026-05-05 20:05 38.53592 59.26315 26971 ft 473 kts 51°
2026-05-05 20:06 38.55591 59.29678 27412 ft 476 kts 52°
2026-05-05 20:06 38.57562 59.33105 27836 ft 480 kts 52°
2026-05-05 20:06 38.59528 59.36576 28223 ft 483 kts 51°
2026-05-05 20:06 38.61590 59.39979 28623 ft 486 kts 49°
2026-05-05 20:07 38.63725 59.43282 29024 ft 488 kts 47°
2026-05-05 20:07 38.65938 59.46612 29418 ft 491 kts 47°
2026-05-05 20:07 38.68175 59.49958 29794 ft 494 kts 47°
2026-05-05 20:07 38.70416 59.53327 30119 ft 497 kts 47°
2026-05-05 20:08 38.72650 59.56712 30460 ft 499 kts 47°
2026-05-05 20:08 38.74888 59.60128 30794 ft 501 kts 47°
2026-05-05 20:08 38.77096 59.63518 31122 ft 502 kts 47°
2026-05-05 20:08 38.79337 59.66971 31542 ft 501 kts 47°
2026-05-05 20:09 38.81558 59.70401 32040 ft 498 kts 47°
2026-05-05 20:09 38.83768 59.73819 32546 ft 496 kts 47°
2026-05-05 20:09 38.85971 59.77226 32990 ft 494 kts 47°
2026-05-05 20:09 38.88164 59.80621 33389 ft 494 kts 47°
2026-05-05 20:10 38.90355 59.84013 33784 ft 493 kts 47°
2026-05-05 20:10 38.92515 59.87361 34145 ft 492 kts 47°
2026-05-05 20:10 38.94701 59.90752 34476 ft 492 kts 47°
2026-05-05 20:10 38.96889 59.94150 34770 ft 493 kts 47°
2026-05-05 20:11 38.99074 59.97546 35083 ft 493 kts 47°
2026-05-05 20:11 39.01260 60.00949 35403 ft 492 kts 47°
2026-05-05 20:11 39.03442 60.04350 35739 ft 491 kts 47°
2026-05-05 20:11 39.05615 60.07739 36083 ft 490 kts 47°
2026-05-05 20:12 39.07763 60.11094 36407 ft 490 kts 47°
2026-05-05 20:12 39.09937 60.14493 36717 ft 489 kts 47°
2026-05-05 20:12 39.12072 60.17835 37042 ft 489 kts 47°
2026-05-05 20:12 39.14232 60.21219 37381 ft 488 kts 47°
2026-05-05 20:13 39.16388 60.24600 37705 ft 487 kts 47°
2026-05-05 20:13 39.18535 60.27971 38021 ft 486 kts 46°
2026-05-05 20:13 39.20686 60.31352 38330 ft 485 kts 46°
2026-05-05 20:13 39.22825 60.34717 38618 ft 484 kts 46°
2026-05-05 20:14 39.24932 60.38036 38837 ft 484 kts 47°
2026-05-05 20:14 39.29222 60.44800 38860 ft 489 kts 47°
2026-05-05 20:15 39.33520 60.51599 38848 ft 484 kts 47°
2026-05-05 20:15 39.37753 60.58307 38861 ft 480 kts 47°
2026-05-05 20:16 39.41944 60.64960 38868 ft 478 kts 47°
2026-05-05 20:16 39.46151 60.71652 38866 ft 477 kts 47°
2026-05-05 20:17 39.50307 60.78275 38876 ft 477 kts 47°
2026-05-05 20:17 39.54485 60.84950 38876 ft 477 kts 47°
2026-05-05 20:18 39.58678 60.91664 38879 ft 478 kts 47°
2026-05-05 20:18 39.62846 60.98351 38879 ft 479 kts 47°
2026-05-05 20:19 39.67049 61.05111 38884 ft 481 kts 47°
2026-05-05 20:19 39.71230 61.11849 38887 ft 481 kts 47°
2026-05-05 20:20 39.75438 61.18645 38891 ft 482 kts 47°
2026-05-05 20:20 39.79618 61.25411 38889 ft 482 kts 47°
2026-05-05 20:21 39.83819 61.32227 38894 ft 481 kts 47°
2026-05-05 20:21 39.88002 61.39025 38896 ft 480 kts 47°
2026-05-05 20:22 39.92147 61.45777 38899 ft 479 kts 47°
2026-05-05 20:22 39.96306 61.52569 38899 ft 478 kts 47°
2026-05-05 20:23 40.00457 61.59364 38902 ft 478 kts 47°
2026-05-05 20:23 40.04594 61.66150 38909 ft 477 kts 47°
2026-05-05 20:24 40.08694 61.72889 38908 ft 476 kts 47°
2026-05-05 20:24 40.12819 61.79685 38908 ft 476 kts 47°
2026-05-05 20:25 40.16931 61.86474 38909 ft 475 kts 47°
2026-05-05 20:25 40.21015 61.93231 38914 ft 475 kts 47°
2026-05-05 20:26 40.25121 62.00038 38914 ft 475 kts 47°
2026-05-05 20:26 40.29192 62.06806 38917 ft 476 kts 47°
2026-05-05 20:27 40.33290 62.13630 38921 ft 476 kts 47°
2026-05-05 20:27 40.37382 62.20460 38921 ft 476 kts 47°
2026-05-05 20:28 40.41480 62.27296 38927 ft 476 kts 47°
2026-05-05 20:28 40.45567 62.34107 38924 ft 476 kts 47°
2026-05-05 20:29 40.49672 62.40960 38931 ft 477 kts 47°
2026-05-05 20:29 40.53754 62.47797 38929 ft 477 kts 47°
2026-05-05 20:30 40.57852 62.54676 38930 ft 477 kts 47°
2026-05-05 20:30 40.61923 62.61527 38930 ft 477 kts 47°
2026-05-05 20:31 40.66017 62.68430 38935 ft 477 kts 47°
2026-05-05 20:31 40.70099 62.75328 38937 ft 477 kts 48°
2026-05-05 20:32 40.74176 62.82234 38940 ft 477 kts 48°
2026-05-05 20:32 40.78226 62.89109 38937 ft 477 kts 48°
2026-05-05 20:33 40.82301 62.96042 38942 ft 477 kts 48°
2026-05-05 20:33 40.86352 63.02951 38942 ft 477 kts 48°
2026-05-05 20:34 40.90415 63.09894 38949 ft 477 kts 48°
2026-05-05 20:34 40.94475 63.16850 38947 ft 477 kts 48°
2026-05-05 20:35 40.98514 63.23783 38954 ft 477 kts 48°
2026-05-05 20:35 41.01888 63.29588 38956 ft 477 kts 48°
2026-05-05 20:36 41.06618 63.37744 38959 ft 477 kts 48°
2026-05-05 20:36 41.09991 63.43573 38964 ft 478 kts 48°
2026-05-05 20:37 41.14011 63.50535 38968 ft 478 kts 48°
2026-05-05 20:37 41.18057 63.57558 38961 ft 478 kts 48°
2026-05-05 20:38 41.22094 63.64581 38984 ft 478 kts 48°
2026-05-05 20:38 41.26128 63.71616 38970 ft 478 kts 48°
2026-05-05 20:39 41.30134 63.78618 38982 ft 478 kts 48°
2026-05-05 20:39 41.34159 63.85669 38979 ft 478 kts 48°
2026-05-05 20:40 41.38187 63.92742 38983 ft 478 kts 48°
2026-05-05 20:40 41.42155 63.99802 38983 ft 478 kts 49°
2026-05-05 20:41 41.46082 64.06939 38978 ft 479 kts 49°
2026-05-05 20:41 41.50020 64.14113 38980 ft 479 kts 49°
2026-05-05 20:42 41.53966 64.21301 38989 ft 479 kts 49°
2026-05-05 20:42 41.57913 64.28496 38989 ft 479 kts 49°
2026-05-05 20:43 41.61832 64.35659 38985 ft 480 kts 49°
2026-05-05 20:43 41.65774 64.42883 38988 ft 480 kts 49°
2026-05-05 20:44 41.69686 64.50068 38997 ft 480 kts 49°
2026-05-05 20:44 41.73616 64.57301 38990 ft 480 kts 49°
2026-05-05 20:45 41.79136 64.68566 38995 ft 484 kts 56°
2026-05-05 20:45 41.82426 64.76276 38991 ft 484 kts 56°
2026-05-05 20:46 41.85780 64.84118 38991 ft 484 kts 56°
2026-05-05 20:46 41.89164 64.91945 38993 ft 484 kts 56°
2026-05-05 20:47 41.92524 64.99701 38992 ft 484 kts 56°
2026-05-05 20:47 41.95909 65.07535 38996 ft 484 kts 56°
2026-05-05 20:48 41.99284 65.15371 38995 ft 484 kts 56°
2026-05-05 20:48 42.02632 65.23170 38997 ft 484 kts 56°
2026-05-05 20:49 42.06003 65.31042 38995 ft 484 kts 56°
2026-05-05 20:49 42.09368 65.38918 38994 ft 484 kts 56°
2026-05-05 20:50 42.12703 65.46740 38992 ft 484 kts 56°
2026-05-05 20:50 42.16056 65.54620 38991 ft 484 kts 56°
2026-05-05 20:51 42.19406 65.62517 38996 ft 484 kts 56°
2026-05-05 20:51 42.22727 65.70368 38999 ft 484 kts 56°
2026-05-05 20:52 42.26067 65.78283 38993 ft 484 kts 56°
2026-05-05 20:52 42.29380 65.86159 38993 ft 484 kts 56°
2026-05-05 20:53 42.32702 65.94075 38999 ft 484 kts 56°
2026-05-05 20:53 42.36016 66.01992 38994 ft 484 kts 56°
2026-05-05 20:54 42.39320 66.09906 38903 ft 486 kts 56°
2026-05-05 20:54 42.41003 66.13944 38452 ft 495 kts 56°
2026-05-05 20:54 42.42689 66.18005 38424 ft 493 kts 56°
2026-05-05 20:55 42.46033 66.26093 38381 ft 491 kts 56°
2026-05-05 20:55 42.49357 66.34152 38347 ft 489 kts 56°
2026-05-05 20:56 42.52646 66.42141 38322 ft 487 kts 56°
2026-05-05 20:56 42.55945 66.50175 38287 ft 486 kts 56°
2026-05-05 20:57 42.59200 66.58133 37956 ft 473 kts 56°
2026-05-05 20:57 42.60790 66.62029 37243 ft 472 kts 56°
2026-05-05 20:57 42.62367 66.65889 36491 ft 474 kts 56°
2026-05-05 20:58 42.63972 66.69822 35660 ft 477 kts 56°
2026-05-05 20:58 42.65590 66.73792 34920 ft 478 kts 56°
2026-05-05 20:58 42.67191 66.77731 34296 ft 476 kts 56°
2026-05-05 20:58 42.68800 66.81693 33437 ft 478 kts 56°
2026-05-05 20:59 42.70381 66.85596 32792 ft 475 kts 57°
2026-05-05 20:59 42.71965 66.89516 32249 ft 469 kts 57°
2026-05-05 20:59 42.73546 66.93427 31253 ft 472 kts 57°
2026-05-05 20:59 42.75129 66.97341 30144 ft 479 kts 57°
2026-05-05 21:00 42.76740 67.01332 28997 ft 482 kts 57°
2026-05-05 21:00 42.78351 67.05331 27812 ft 483 kts 57°
2026-05-05 21:00 42.79967 67.09353 26728 ft 483 kts 58°
2026-05-05 21:00 42.81575 67.13363 25801 ft 480 kts 58°
2026-05-05 21:01 42.83170 67.17346 24964 ft 475 kts 58°
2026-05-05 21:01 42.84740 67.21274 24176 ft 469 kts 58°
2026-05-05 21:01 42.86290 67.25154 23396 ft 463 kts 58°
2026-05-05 21:01 42.87823 67.28993 22521 ft 457 kts 58°
2026-05-05 21:02 42.89315 67.32736 21705 ft 451 kts 58°
2026-05-05 21:02 42.90809 67.36487 20901 ft 446 kts 59°
2026-05-05 21:02 42.92282 67.40189 20107 ft 441 kts 59°
2026-05-05 21:02 42.93735 67.43846 19326 ft 436 kts 59°
2026-05-05 21:03 42.95174 67.47473 18565 ft 432 kts 59°
2026-05-05 21:03 42.96606 67.51083 17495 ft 433 kts 59°
2026-05-05 21:03 42.98024 67.54665 16492 ft 432 kts 60°
2026-05-05 21:03 42.99441 67.58254 15664 ft 427 kts 60°
2026-05-05 21:04 43.00830 67.61806 14908 ft 420 kts 60°
2026-05-05 21:04 43.02171 67.65331 14140 ft 414 kts 59°
2026-05-05 21:04 43.03456 67.68827 13646 ft 403 kts 65°
2026-05-05 21:04 43.04528 67.72221 13389 ft 386 kts 66°
2026-05-05 21:05 43.05555 67.75551 13121 ft 374 kts 66°
2026-05-05 21:05 43.06570 67.78801 12871 ft 371 kts 65°
2026-05-05 21:05 43.07608 67.82047 12622 ft 373 kts 65°
2026-05-05 21:05 43.08665 67.85296 12375 ft 373 kts 65°
2026-05-05 21:06 43.09731 67.88537 12126 ft 373 kts 64°
2026-05-05 21:06 43.10802 67.91773 11881 ft 373 kts 64°
2026-05-05 21:06 43.11876 67.95010 11634 ft 371 kts 64°
2026-05-05 21:06 43.12944 67.98225 11390 ft 370 kts 64°
2026-05-05 21:07 43.13995 68.01390 11157 ft 368 kts 64°
2026-05-05 21:07 43.15052 68.04577 10921 ft 367 kts 64°
2026-05-05 21:07 43.16102 68.07748 10680 ft 365 kts 65°
2026-05-05 21:07 43.17151 68.10918 10444 ft 364 kts 65°
2026-05-05 21:08 43.18192 68.14068 10211 ft 362 kts 65°
2026-05-05 21:08 43.19228 68.17206 9979 ft 361 kts 65°
2026-05-05 21:08 43.20260 68.20335 9724 ft 355 kts 65°
2026-05-05 21:08 43.21261 68.23377 9451 ft 344 kts 65°
2026-05-05 21:09 43.22235 68.26337 9200 ft 338 kts 65°
2026-05-05 21:09 43.23186 68.29234 8940 ft 328 kts 65°
2026-05-05 21:09 43.24099 68.32014 8678 ft 318 kts 65°
2026-05-05 21:09 43.24996 68.34751 8429 ft 310 kts 65°
2026-05-05 21:10 43.25870 68.37418 8183 ft 303 kts 65°
2026-05-05 21:10 43.26724 68.40027 7925 ft 296 kts 66°
2026-05-05 21:10 43.27559 68.42582 7673 ft 290 kts 66°
2026-05-05 21:10 43.28380 68.45096 7426 ft 285 kts 66°
2026-05-05 21:11 43.29174 68.47528 7187 ft 280 kts 66°
2026-05-05 21:11 43.29964 68.49950 6943 ft 276 kts 66°
2026-05-05 21:11 43.30743 68.52343 6702 ft 272 kts 66°
2026-05-05 21:11 43.31512 68.54704 6464 ft 268 kts 66°
2026-05-05 21:12 43.32271 68.57037 6212 ft 265 kts 66°
2026-05-05 21:12 43.32723 68.59376 6209 ft 249 kts 92°
2026-05-05 21:12 43.32550 68.61676 6210 ft 235 kts 97°
2026-05-05 21:12 43.32402 68.63841 6202 ft 223 kts 96°
2026-05-05 21:13 43.32291 68.65924 6191 ft 214 kts 95°
2026-05-05 21:13 43.32199 68.67964 6204 ft 216 kts 95°
2026-05-05 21:13 43.32110 68.70064 6218 ft 223 kts 94°
2026-05-05 21:13 43.32023 68.72210 6221 ft 226 kts 94°
2026-05-05 21:14 43.32111 68.74352 6196 ft 229 kts 73°
2026-05-05 21:14 43.32877 68.76253 6210 ft 229 kts 48°
2026-05-05 21:14 43.34134 68.77574 6202 ft 228 kts 24°
2026-05-05 21:14 43.35672 68.78047 6205 ft 226 kts 358°
2026-05-05 21:15 43.37183 68.77579 6212 ft 223 kts 332°
2026-05-05 21:15 43.38381 68.76305 6207 ft 220 kts 307°
2026-05-05 21:15 43.39077 68.74460 6213 ft 217 kts 282°
2026-05-05 21:15 43.39184 68.72406 6214 ft 216 kts 262°
2026-05-05 21:16 43.38767 68.70440 6207 ft 215 kts 240°
2026-05-05 21:16 43.37949 68.68718 6214 ft 215 kts 235°
2026-05-05 21:16 43.37097 68.67014 6205 ft 216 kts 235°
2026-05-05 21:16 43.36246 68.65313 6199 ft 216 kts 235°
2026-05-05 21:17 43.35290 68.63740 6200 ft 214 kts 219°
2026-05-05 21:17 43.34077 68.62435 6115 ft 239 kts 218°
2026-05-05 21:17 43.32777 68.61034 6049 ft 234 kts 218°
2026-05-05 21:17 43.31546 68.59694 5992 ft 217 kts 218°
2026-05-05 21:18 43.30409 68.58448 5972 ft 200 kts 218°
2026-05-05 21:18 43.29356 68.57287 5976 ft 190 kts 219°
2026-05-05 21:18 43.28333 68.56158 5983 ft 188 kts 219°
2026-05-05 21:18 43.27314 68.55029 5997 ft 189 kts 219°
2026-05-05 21:19 43.26290 68.53895 5997 ft 189 kts 219°
2026-05-05 21:19 43.25275 68.52769 5995 ft 190 kts 219°
2026-05-05 21:19 43.24266 68.51648 5994 ft 181 kts 219°
2026-05-05 21:19 43.23317 68.50595 5983 ft 172 kts 219°
2026-05-05 21:20 43.22396 68.49572 5985 ft 169 kts 219°
2026-05-05 21:20 43.21486 68.48561 5986 ft 167 kts 219°
2026-05-05 21:20 43.20581 68.47555 5991 ft 167 kts 219°
2026-05-05 21:20 43.19983 68.46892 5991 ft 167 kts 219°
2026-05-05 21:21 43.18796 68.45574 5886 ft 164 kts 219°
2026-05-05 21:21 43.17909 68.44590 5590 ft 165 kts 219°
2026-05-05 21:21 43.17010 68.43594 5321 ft 166 kts 218°
2026-05-05 21:21 43.16414 68.42934 5144 ft 166 kts 218°
2026-05-05 21:22 43.15211 68.41605 4804 ft 165 kts 216°
2026-05-05 21:22 43.14536 68.41165 4662 ft 159 kts 186°
2026-05-05 21:22 43.13183 68.40719 4656 ft 160 kts 229°
2026-05-05 21:22 43.12893 68.39768 4699 ft 166 kts 268°
2026-05-05 21:23 43.13377 68.38378 4714 ft 174 kts 324°
2026-05-05 21:23 43.14518 68.37856 4736 ft 174 kts 340°
2026-05-05 21:23 43.15418 68.36790 4691 ft 172 kts 306°
2026-05-05 21:23 43.16255 68.35568 4604 ft 177 kts 315°
2026-05-05 21:24 43.17145 68.34417 4522 ft 174 kts 316°
2026-05-05 21:24 43.18130 68.33517 4338 ft 169 kts 341°
2026-05-05 21:24 43.19277 68.33302 4194 ft 169 kts
2026-05-05 21:24 43.20338 68.33946 4082 ft 173 kts 46°
2026-05-05 21:25 43.21076 68.35207 3946 ft 168 kts 49°
2026-05-05 21:25 43.21830 68.36381 3750 ft 160 kts 53°
2026-05-05 21:25 43.22466 68.37597 3553 ft 155 kts 56°
2026-05-05 21:25 43.23070 68.38807 3364 ft 154 kts 56°
2026-05-05 21:26 43.23670 68.40017 3196 ft 152 kts 56°
2026-05-05 21:26 43.24269 68.41229 2974 ft 152 kts 56°
2026-05-05 21:26 43.24844 68.42392 2787 ft 140 kts 56°
2026-05-05 21:26 43.25387 68.43488 2597 ft 137 kts 56°
2026-05-05 21:27 43.25912 68.44549 2431 ft 135 kts 56°
2026-05-05 21:27 43.26442 68.45620 2247 ft 136 kts 56°
2026-05-05 21:27 43.26971 68.46687 2072 ft 135 kts 56°
2026-05-05 21:27 43.27499 68.47754 1897 ft 134 kts 56°
2026-05-05 21:28 43.28011 68.48786 1729 ft 130 kts 56°
2026-05-05 21:28 43.28518 68.49809 1551 ft 127 kts 56°
2026-05-05 21:28 43.29019 68.50822 1386 ft 128 kts 56°
2026-05-05 21:28 43.29517 68.51826 1221 ft 126 kts 55°
2026-05-05 21:29 43.30013 68.52819 1031 ft 125 kts 56°
2026-05-05 21:29 43.30494 68.53797 924 ft 118 kts 56°
2026-05-05 21:29 43.30870 68.54553 914 ft 75 kts 56°
2026-05-05 21:29 43.31061 68.54939 920 ft 19 kts 56°
2026-05-05 21:30 43.31158 68.54994 918 ft 18 kts 334°
2026-05-05 21:30 43.31236 68.54932 919 ft 12 kts 328°
2026-05-05 21:30 43.31303 68.54874 922 ft 11 kts 325°
2026-05-05 21:30 43.31353 68.54822 923 ft 8 kts 322°
2026-05-05 21:31 43.31396 68.54774 919 ft 7 kts 303°
2026-05-05 21:31 43.31388 68.54705 919 ft 8 kts 237°
2026-05-05 21:31 43.31390 68.54670 921 ft 1 kts 17°
2026-05-05 21:31 43.31399 68.54718 919 ft 12 kts 95°
2026-05-05 21:32 43.31415 68.54833 921 ft 8 kts 57°
2026-05-05 21:32 43.31447 68.54898 923 ft 8 kts 55°
2026-05-05 21:32 43.31478 68.54963 919 ft 8 kts 56°
2026-05-05 21:32 43.31509 68.55025 919 ft 8 kts 56°
2026-05-05 21:33 43.31541 68.55083 921 ft 8 kts 37°
2026-05-05 21:33 43.31589 68.55061 920 ft 8 kts 326°
2026-05-05 21:33 43.31629 68.55023 919 ft 6 kts 326°
2026-05-05 21:33 43.31642 68.55010 919 ft 0 kts 326°